San Antonio, Texas, United States (78266)
Lat: 29.42N, Lon: 98.49W
Wx Zone: TXZ206
Local Info
Past Weather Observations for Today

NOTE: This archive is for the closest National Weather Service station to San Antonio. Information may differ from the station used for current weather conditions.

Click here for Long-term Archive

Time Weather Temperature Dewpoint Humidity Pressure Winds Precip Visibility
21:58
Partly Cloudy
66°F / 19°C 46°F / 8°C 49% 30.06 in
(1018 mb)
ENE 5.8 mph
(ENE 9 kph)
- 10SM
20:58
Clear
68°F / 20°C 46°F / 8°C 46% 30.04 in
(1017 mb)
ENE 5.8 mph
(ENE 9 kph)
- 10SM
19:58
Clear
70°F / 21°C 46°F / 8°C 43% 30.04 in
(1017 mb)
ENE 5.8 mph
(ENE 9 kph)
- 10SM
18:58
Clear
73°F / 23°C 48°F / 9°C 41% 30.01 in
(1016 mb)
E 5.8 mph
(E 9 kph)
- 10SM
17:58
Clear
75°F / 24°C 48°F / 9°C 39% 30.01 in
(1016 mb)
E 5.8 mph
(E 9 kph)
- 10SM
16:58
Partly Cloudy
81°F / 27°C 50°F / 10°C 34% 29.98 in
(1015 mb)
E 5.8 mph
(E 9 kph)
- 10SM
15:58
Clear
82°F / 28°C 48°F / 9°C 30% 29.98 in
(1015 mb)
E 4.6 mph
(E 7 kph)
- 10SM
14:58
Clear
82°F / 28°C 52°F / 11°C 35% 29.98 in
(1015 mb)
SE 6.9 mph
(SE 11 kph)
- 10SM
13:58
Clear
82°F / 28°C 55°F / 13°C 40% 30.01 in
(1016 mb)
E 10.4 mph
(E 17 kph)
- 10SM
12:58
Clear
82°F / 28°C 54°F / 12°C 37% 30.04 in
(1017 mb)
E 10.4 mph
(E 17 kph)
- 10SM
11:58
Clear
79°F / 26°C 54°F / 12°C 42% 30.06 in
(1018 mb)
Variable 6.9 mph
(Variable 11 kph)
- 10SM
10:58
Clear
77°F / 25°C 57°F / 14°C 51% 30.09 in
(1019 mb)
NE 8.1 mph
(NE 13 kph)
- 10SM
09:58
Clear
73°F / 23°C 57°F / 14°C 57% 30.09 in
(1019 mb)
NE 8.1 mph
(NE 13 kph)
- 10SM
08:58
Clear
70°F / 21°C 59°F / 15°C 69% 30.09 in
(1019 mb)
ENE 8.1 mph
(ENE 13 kph)
-
07:58
Clear
66°F / 19°C 59°F / 15°C 78% 30.09 in
(1019 mb)
NE 4.6 mph
(NE 7 kph)
- 10SM
06:58
Clear
61°F / 16°C 57°F / 14°C 88% 30.06 in
(1018 mb)
N 3.5 mph
(N 6 kph)
- 10SM
05:58
Clear
61°F / 16°C 57°F / 14°C 88% 30.04 in
(1017 mb)
N 5.8 mph
(N 9 kph)
- 10SM
04:58
Clear
61°F / 16°C 57°F / 14°C 88% 30.04 in
(1017 mb)
NNW 5.8 mph
(NNW 9 kph)
- 10SM
03:58
Clear
61°F / 16°C 57°F / 14°C 88% 30.04 in
(1017 mb)
NNW 3.5 mph
(NNW 6 kph)
- 10SM
02:58
Clear
61°F / 16°C 57°F / 14°C 88% 30.04 in
(1017 mb)
N 4.6 mph
(N 7 kph)
- 10SM
01:58
Clear
64°F / 18°C 57°F / 14°C 78% 30.04 in
(1017 mb)
NNE 3.5 mph
(NNE 6 kph)
- 10SM
00:58
Clear
66°F / 19°C 57°F / 14°C 73% 30.04 in
(1017 mb)
NE 4.6 mph
(NE 7 kph)
- 10SM
Time Weather Temperature Dewpoint Humidity Pressure Winds Precip Visibility


Weather for websites

WeatherForYou.com, LLC is not responsible for any damages or problems caused by this service. Current weather conditions are obtained from the closest station including government and personal stations which may have varying degrees of accuracy. Weather forecasts are derived from the NOAA NDFD. Like all things, this site belongs to Jesus Christ... He just trusts me to maintain it. If you have any questions or comments email webmaster@weatherforyou.com

Copyright © 2014, WeatherForYou.com LLC. All rights reserved.